Flag for Denmark Weather past 2 weeks in Copenhagen, Denmark

50 °F

Partly sunny.

Feels Like: 45 °F
Forecast: 41 / 52 °F
Wind: 15 mph from East

Location: Koebenhavn-Kastrup Airport

Current Time: Oct 9, 2015 at 7:51:29 PM

Latest Report: Oct 9, 2015 at 7:20 PM

Visibility: N/A

Pressure: 30.33 "Hg

Humidity: 62%

Dew point: 37 °F

Location of CopenhagenLocation

Historic Weather in Copenhagen — Graph


Copenhagen temperature yesterday

Maximum temperature yesterday: 52 °F (at 12:50 AM)
Minimum temperature yesterday: 50 °F (at 6:50 AM)
Average temperature yesterday: 51 °F

Past Weeks' High & Low Weather Summary

High64 °F (Oct 2, 2:20 PM)100% (Sep 26, 3:50 AM)30.77 "Hg (Sep 26, 3:50 AM)
Low43 °F (Sep 30, 2:20 AM)45% (Sep 28, 4:20 PM)29.92 "Hg (Oct 4, 2:20 AM)
Average54 °F79%30.25 "Hg
* Reported Sep 24 6:20 PM — Oct 9 6:50 PM, Copenhagen, Weather by CustomWeather, © 2015

Note: Actual official high and low records may vary slightly from our data, if they occured in-between our weather recording intervals... More about our weather records


Copenhagen weather history for previous 24 hours

Time TempWeatherWind HumidityBarometerVisibility
6:50 PM
Fri, Oct 9
50 °FPartly sunny.14 mph62%30.33 "HgN/A
6:20 PM50 °FPartly sunny.16 mph58%30.33 "HgN/A
5:50 PM50 °FPartly sunny.13 mph58%30.30 "HgN/A
5:20 PM52 °FPartly sunny.14 mph54%30.30 "HgN/A
4:20 PM52 °FPartly sunny.15 mph50%30.30 "HgN/A
3:50 PM52 °FPartly sunny.15 mph50%30.30 "HgN/A
3:20 PM52 °FPartly sunny.15 mph50%30.30 "HgN/A
2:50 PM52 °FPartly sunny.15 mph50%30.30 "HgN/A
2:20 PM54 °FPartly sunny.16 mph51%30.30 "HgN/A
1:50 PM54 °FBroken clouds.16 mph51%30.30 "HgN/A
1:20 PM54 °FBroken clouds.17 mph47%30.30 "HgN/A
12:50 PM54 °FBroken clouds.18 mph51%30.30 "HgN/A
12:20 PM54 °FBroken clouds.18 mph51%30.30 "HgN/A
11:50 AM54 °FSunny.18 mph54%30.30 "Hg10 mi
11:20 AM52 °FSunny.18 mph54%30.30 "Hg10 mi
10:50 AM52 °FSunny.15 mph58%30.27 "Hg10 mi
10:20 AM52 °FSunny.14 mph58%30.27 "Hg10 mi
9:50 AM50 °FSunny.13 mph62%30.27 "Hg10 mi
9:20 AM50 °FSunny.13 mph62%30.27 "Hg10 mi
8:50 AM50 °FPartly sunny.14 mph67%30.27 "HgN/A
8:20 AM50 °FPassing clouds.13 mph67%30.24 "HgN/A
7:50 AM50 °FPassing clouds.12 mph67%30.24 "HgN/A
7:20 AM50 °FPartly cloudy.13 mph67%30.24 "HgN/A
6:50 AM50 °FPartly cloudy.13 mph67%30.24 "HgN/A
6:20 AM50 °FPartly cloudy.12 mph71%30.24 "HgN/A
5:20 AM50 °FPartly cloudy.12 mph71%30.24 "HgN/A
4:50 AM50 °FPassing clouds.12 mph71%30.24 "HgN/A
4:20 AM50 °FPassing clouds.12 mph71%30.24 "HgN/A
3:50 AM50 °FPassing clouds.13 mph71%30.21 "HgN/A
3:20 AM50 °FPassing clouds.12 mph76%30.21 "HgN/A
2:50 AM50 °FPassing clouds.10 mph76%30.21 "HgN/A
2:20 AM50 °FPassing clouds.12 mph76%30.21 "HgN/A
1:50 AM52 °FPassing clouds.10 mph67%30.21 "HgN/A
1:20 AM50 °FPassing clouds.13 mph71%30.21 "HgN/A
12:50 AM50 °FPassing clouds.13 mph71%30.21 "HgN/A
12:20 AM50 °FPassing clouds.12 mph71%30.21 "HgN/A
11:20 PM
Thu, Oct 8
50 °FPassing clouds.13 mph71%30.24 "HgN/A
10:50 PM50 °FPassing clouds.12 mph71%30.21 "HgN/A
10:20 PM50 °FPassing clouds.14 mph71%30.21 "HgN/A
9:50 PM50 °FClear.14 mph67%30.21 "Hg10 mi
9:20 PM50 °FClear.14 mph67%30.21 "Hg10 mi
8:50 PM50 °FClear.13 mph67%30.21 "Hg10 mi
8:20 PM50 °FClear.14 mph67%30.21 "Hg10 mi
7:50 PM50 °FClear.18 mph67%30.21 "Hg10 mi
7:20 PM50 °FLight rain. Partly sunny.17 mph67%30.21 "HgN/A
Weather by CustomWeather, © 2015

See weather overviewHow to use our weather pages